When you browse on this site, cookies collect data to enhance your experience and personalize the content and advertising you see.
Visit our Privacy Policy to learn more. By continuing to use the site, you agree to this use of cookies and data.
  • In Österreich
  • Länderverzeichnis
  • Für 7 Tage
  • Wassertemperatur
  • Wetterkarte
  • News
  • Widgets
  • user-avatar
    Anmelden

    Stündliche Wetter Hamburg

    Heute, 20 August, Dienstag

    Zeit Temperatur Niederschläge Wind Luftdruck Luftfeuchtigkeit
    00:00 +14°C° 0 mm 2 m/S 762 mmHg 91%
    01:00 +14°C° 0 mm 2 m/S 762 mmHg 92%
    02:00 +14°C° 0 mm 2 m/S 763 mmHg 92%
    03:00 +13°C° 0 mm 2 m/S 763 mmHg 92%
    04:00 +13°C° 0 mm 2 m/S 763 mmHg 93%
    05:00 +13°C° 0 mm 3 m/S 763 mmHg 90%
    06:00 +13°C° 0 mm 3 m/S 763 mmHg 88%
    07:00 +14°C° 0 mm 3 m/S 763 mmHg 86%
    08:00 +15°C° 0 mm 4 m/S 764 mmHg 79%
    09:00 +18°C° 0 mm 4 m/S 764 mmHg 73%
    10:00 +19°C° 0 mm 4 m/S 764 mmHg 66%
    11:00 +20°C° 0.1 mm 4 m/S 764 mmHg 63%
    12:00 +21°C° 0.1 mm 4 m/S 765 mmHg 60%
    13:00 +22°C° 0.1 mm 4 m/S 765 mmHg 57%
    14:00 +21°C° 0.1 mm 4 m/S 765 mmHg 57%
    15:00 +21°C° 0.1 mm 3 m/S 765 mmHg 58%
    16:00 +21°C° 0.1 mm 3 m/S 765 mmHg 59%
    17:00 +20°C° 0.2 mm 2 m/S 765 mmHg 66%
    18:00 +19°C° 0.2 mm 2 m/S 765 mmHg 73%
    19:00 +18°C° 0.2 mm 1 m/S 765 mmHg 80%
    20:00 +18°C° 0 mm 1 m/S 766 mmHg 82%
    21:00 +16°C° 0 mm 1 m/S 766 mmHg 84%
    22:00 +15°C° 0 mm 1 m/S 767 mmHg 86%
    23:00 +14°C° 0 mm 1 m/S 767 mmHg 89%

    Morgen, 21 August, Mittwoch

    Zeit Temperatur Niederschläge Wind Luftdruck Luftfeuchtigkeit
    00:00 +14°C° 0 mm 1 m/S 767 mmHg 91%
    01:00 +13°C° 0 mm 2 m/S 767 mmHg 93%
    02:00 +13°C° 0 mm 2 m/S 767 mmHg 94%
    03:00 +12°C° 0 mm 2 m/S 768 mmHg 95%
    04:00 +12°C° 0 mm 2 m/S 768 mmHg 96%
    05:00 +12°C° 0 mm 2 m/S 768 mmHg 94%
    06:00 +13°C° 0 mm 2 m/S 768 mmHg 93%
    07:00 +13°C° 0 mm 2 m/S 769 mmHg 91%
    08:00 +14°C° 0 mm 3 m/S 769 mmHg 83%
    09:00 +17°C° 0 mm 3 m/S 769 mmHg 75%
    10:00 +18°C° 0 mm 3 m/S 769 mmHg 66%
    11:00 +19°C° 0 mm 3 m/S 769 mmHg 62%
    12:00 +20°C° 0 mm 3 m/S 769 mmHg 57%
    13:00 +21°C° 0 mm 3 m/S 769 mmHg 52%
    14:00 +21°C° 0 mm 3 m/S 769 mmHg 53%
    15:00 +21°C° 0 mm 3 m/S 769 mmHg 53%
    16:00 +21°C° 0 mm 3 m/S 768 mmHg 54%
    17:00 +20°C° 0 mm 2 m/S 768 mmHg 61%
    18:00 +19°C° 0 mm 1 m/S 768 mmHg 67%
    19:00 +18°C° 0 mm 1 m/S 768 mmHg 74%
    20:00 +16°C° 0 mm 1 m/S 769 mmHg 77%
    21:00 +15°C° 0 mm 1 m/S 769 mmHg 81%
    22:00 +14°C° 0 mm 1 m/S 769 mmHg 84%
    23:00 +14°C° 0 mm 1 m/S 769 mmHg 84%

    übermorgen, 22 August, Donnerstag

    Zeit Temperatur Niederschläge Wind Luftdruck Luftfeuchtigkeit
    00:00 +14°C° 0 mm 1 m/S 769 mmHg 85%
    01:00 +13°C° 0 mm 2 m/S 769 mmHg 85%
    02:00 +13°C° 0 mm 2 m/S 769 mmHg 84%
    03:00 +13°C° 0 mm 2 m/S 768 mmHg 82%
    04:00 +13°C° 0 mm 2 m/S 768 mmHg 81%
    05:00 +14°C° 0 mm 2 m/S 768 mmHg 79%
    06:00 +14°C° 0 mm 2 m/S 768 mmHg 76%
    07:00 +15°C° 0 mm 2 m/S 768 mmHg 74%
    08:00 +17°C° 0 mm 2 m/S 768 mmHg 69%
    09:00 +18°C° 0 mm 3 m/S 768 mmHg 63%
    10:00 +20°C° 0 mm 3 m/S 768 mmHg 58%
    11:00 +22°C° 0 mm 3 m/S 768 mmHg 54%
    12:00 +24°C° 0 mm 3 m/S 767 mmHg 49%
    13:00 +26°C° 0 mm 4 m/S 767 mmHg 44%
    14:00 +26°C° 0 mm 4 m/S 767 mmHg 45%
    15:00 +26°C° 0 mm 3 m/S 767 mmHg 46%
    16:00 +26°C° 0 mm 3 m/S 767 mmHg 47%
    17:00 +24°C° 0 mm 3 m/S 767 mmHg 56%
    18:00 +23°C° 0 mm 2 m/S 767 mmHg 64%
    19:00 +20°C° 0 mm 2 m/S 767 mmHg 73%
    20:00 +19°C° 0 mm 2 m/S 767 mmHg 77%
    21:00 +18°C° 0 mm 1 m/S 768 mmHg 81%
    22:00 +16°C° 0 mm 1 m/S 768 mmHg 85%
    23:00 +15°C° 0 mm 1 m/S 768 mmHg 85%

    23 August, Freitag

    Zeit Temperatur Niederschläge Wind Luftdruck Luftfeuchtigkeit
    00:00 +14°C° 0 mm 0 m/S 768 mmHg 85%
    01:00 +14°C° 0 mm 0 m/S 768 mmHg 85%
    02:00 +13°C° 0 mm 0 m/S 768 mmHg 86%
    03:00 +13°C° 0 mm 0 m/S 768 mmHg 87%
    04:00 +13°C° 0 mm 0 m/S 768 mmHg 88%
    05:00 +14°C° 0 mm 0 m/S 768 mmHg 85%
    06:00 +15°C° 0 mm 0 m/S 768 mmHg 82%
    07:00 +15°C° 0 mm 0 m/S 768 mmHg 79%
    08:00 +18°C° 0 mm 0 m/S 768 mmHg 72%
    09:00 +22°C° 0 mm 1 m/S 768 mmHg 65%
    10:00 +24°C° 0 mm 1 m/S 769 mmHg 58%
    11:00 +25°C° 0 mm 1 m/S 768 mmHg 52%
    12:00 +26°C° 0 mm 1 m/S 768 mmHg 46%
    13:00 +27°C° 0 mm 2 m/S 768 mmHg 41%
    14:00 +27°C° 0 mm 2 m/S 768 mmHg 41%
    15:00 +27°C° 0 mm 2 m/S 767 mmHg 42%
    16:00 +26°C° 0 mm 2 m/S 767 mmHg 42%
    17:00 +25°C° 0 mm 2 m/S 767 mmHg 50%
    18:00 +23°C° 0 mm 2 m/S 767 mmHg 58%
    19:00 +21°C° 0 mm 2 m/S 767 mmHg 66%
    20:00 +19°C° 0 mm 2 m/S 767 mmHg 70%
    21:00 +18°C° 0 mm 2 m/S 767 mmHg 74%
    22:00 +17°C° 0 mm 2 m/S 767 mmHg 78%
    23:00 +17°C° 0 mm 2 m/S 767 mmHg 80%

    24 August, Samstag

    Zeit Temperatur Niederschläge Wind Luftdruck Luftfeuchtigkeit
    00:00 +17°C° 0 mm 2 m/S 767 mmHg 81%
    01:00 +16°C° 0 mm 2 m/S 767 mmHg 83%
    02:00 +16°C° 0 mm 2 m/S 767 mmHg 83%
    03:00 +16°C° 0 mm 2 m/S 766 mmHg 84%
    04:00 +16°C° 0 mm 2 m/S 766 mmHg 84%
    05:00 +16°C° 0 mm 2 m/S 766 mmHg 81%
    06:00 +18°C° 0 mm 1 m/S 766 mmHg 79%
    07:00 +19°C° 0 mm 1 m/S 766 mmHg 76%
    08:00 +21°C° 0 mm 1 m/S 766 mmHg 69%
    09:00 +23°C° 0 mm 2 m/S 766 mmHg 62%
    10:00 +25°C° 0 mm 2 m/S 766 mmHg 55%
    11:00 +26°C° 0 mm 2 m/S 765 mmHg 51%
    12:00 +27°C° 0 mm 2 m/S 765 mmHg 48%
    13:00 +28°C° 0 mm 3 m/S 764 mmHg 44%
    14:00 +28°C° 0 mm 3 m/S 764 mmHg 45%
    15:00 +28°C° 0 mm 3 m/S 764 mmHg 46%
    16:00 +28°C° 0 mm 3 m/S 764 mmHg 47%
    17:00 +26°C° 0 mm 3 m/S 763 mmHg 54%
    18:00 +24°C° 0 mm 3 m/S 763 mmHg 62%
    19:00 +21°C° 0 mm 3 m/S 763 mmHg 69%
    20:00 +21°C° 0 mm 3 m/S 763 mmHg 71%
    21:00 +20°C° 0 mm 3 m/S 763 mmHg 73%
    22:00 +19°C° 0 mm 3 m/S 763 mmHg 75%
    23:00 +19°C° 0 mm 2 m/S 763 mmHg 77%

    25 August, Sonntag

    Zeit Temperatur Niederschläge Wind Luftdruck Luftfeuchtigkeit
    00:00 +18°C° 0 mm 2 m/S 763 mmHg 78%
    01:00 +18°C° 0 mm 2 m/S 763 mmHg 79%
    02:00 +18°C° 0 mm 2 m/S 762 mmHg 79%
    03:00 +17°C° 0 mm 2 m/S 762 mmHg 79%
    04:00 +17°C° 0 mm 2 m/S 761 mmHg 79%
    05:00 +18°C° 0 mm 2 m/S 762 mmHg 79%
    06:00 +19°C° 0 mm 1 m/S 762 mmHg 78%
    07:00 +20°C° 0 mm 1 m/S 762 mmHg 77%
    08:00 +22°C° 0 mm 1 m/S 762 mmHg 72%
    09:00 +24°C° 0 mm 1 m/S 762 mmHg 66%
    10:00 +26°C° 0 mm 1 m/S 762 mmHg 61%
    11:00 +27°C° 0 mm 1 m/S 762 mmHg 58%
    12:00 +28°C° 0 mm 1 m/S 762 mmHg 54%
    13:00 +29°C° 0 mm 1 m/S 762 mmHg 51%
    14:00 +29°C° 0 mm 1 m/S 761 mmHg 49%
    15:00 +29°C° 0 mm 1 m/S 761 mmHg 48%
    16:00 +29°C° 0 mm 2 m/S 761 mmHg 47%
    17:00 +27°C° 0 mm 2 m/S 761 mmHg 56%
    18:00 +25°C° 0 mm 2 m/S 762 mmHg 64%
    19:00 +23°C° 0 mm 2 m/S 762 mmHg 73%
    20:00 +21°C° 0 mm 2 m/S 762 mmHg 76%
    21:00 +20°C° 0 mm 2 m/S 762 mmHg 78%
    22:00 +20°C° 0 mm 1 m/S 763 mmHg 80%
    23:00 +20°C° 0 mm 1 m/S 763 mmHg 81%
    Mehr zeigen